Weather History for Perry, FL

Change the Weather History Date:

Monday, August 26, 2013

  Actual Average (KCTY) Record (KCTY)
Temperature  
Mean Temperature 79 °F 81 °F  
Max Temperature 91 °F 91 °F 97 °F (1998)
Min Temperature 69 °F 71 °F 69 °F (2007)
Degree Days  
Heating Degree Days 0 0  
Month to date heating degree days 0  
Since 1 June heating degree days 0  
Since 1 July heating degree days 0  
Cooling Degree Days 14 16  
Month to date cooling degree days 426  
Year to date cooling degree days 1860  
Since 1 June cooling degree days 1381  
Growing Degree Days 29 (Base 50)    
Moisture  
Dew Point 67 °F    
Average Humidity 71    
Maximum Humidity 88    
Minimum Humidity 43    
Precipitation  
Precipitation 0.00 in 0.28 in 1.75 in (2010)
Month to date precipitation 6.23  
Year to date precipitation 34.15  
Sea Level Pressure  
Sea Level Pressure 30.15 in    
Wind  
Wind Speed 5 mph (NE)    
Max Wind Speed 10 mph    
Max Gust Speed 18 mph    
Visibility 10 miles    
Events      
T = Trace of Precipitation, MM = Missing Value Source: NWS Daily Summary

Daily Weather History Graph

Daily Weather History Graph

Search for Another Location

Airport:

Trip Planner

Search our weather history database for the weather conditions in past years. The results will help you decide how hot, cold, wet, or windy it might be!

Date:

Astronomy

Aug. 26, 2013 Rise Set
Actual Time 7:08 AM EDT 8:03 PM EDT
Civil Twilight 6:43 AM EDT 8:28 PM EDT
Nautical Twilight 6:14 AM EDT 8:57 PM EDT
Astronomical Twilight 5:44 AM EDT 9:26 PM EDT
Moon 11:43 PM EDT (8/26) 12:39 PM EDT (8/26)
Length of Visible Light 13h 44m
Length of Day
12h 55m
Waning Gibbous, 67% of the Moon is Illuminated
Aug 26
Waning Gibbous
Aug 28
Last Quarter
Sep 5
New
Sep 12
First Quarter
Sep 19
Full

Hourly Weather History & Observations

Time (EDT) Temp. Heat Index Dew Point Humidity Pressure Visibility Wind Dir Wind Speed Gust Speed Precip Events Conditions
12:15 AM 73.4 °F - 68.0 °F 83% 30.22 in 10.0 mi ENE 4.6 mph - N/A   Clear
12:35 AM 73.4 °F - 68.0 °F 83% 30.21 in 10.0 mi ENE 3.5 mph - N/A   Clear
12:53 AM 73.9 °F - 66.9 °F 79% 30.19 in - NE 4.6 mph - N/A   Unknown
12:55 AM 71.6 °F - 66.2 °F 83% 30.21 in 10.0 mi ENE 5.8 mph - N/A   Clear
1:15 AM 71.6 °F - 66.2 °F 83% 30.20 in 10.0 mi NE 4.6 mph - N/A   Clear
1:35 AM 71.6 °F - 66.2 °F 83% 30.20 in 10.0 mi ENE 4.6 mph - N/A   Clear
1:53 AM 73.0 °F - 66.0 °F 79% 30.18 in - Variable 4.6 mph - N/A   Unknown
1:55 AM 71.6 °F - 64.4 °F 78% 30.19 in 10.0 mi Calm Calm - N/A   Clear
2:15 AM 71.6 °F - 64.4 °F 78% 30.19 in 10.0 mi Calm Calm - N/A   Clear
2:35 AM 69.8 °F - 64.4 °F 83% 30.18 in 10.0 mi Calm Calm - N/A   Clear
2:53 AM 71.1 °F - 66.0 °F 84% 30.17 in - NE 3.5 mph - N/A   Unknown
2:55 AM 69.8 °F - 64.4 °F 83% 30.19 in 10.0 mi Calm Calm - N/A   Clear
3:15 AM 69.8 °F - 64.4 °F 83% 30.18 in 10.0 mi NNE 4.6 mph - N/A   Clear
3:35 AM 69.8 °F - 64.4 °F 83% 30.18 in 10.0 mi NE 4.6 mph - N/A   Clear
3:53 AM 71.1 °F - 66.0 °F 84% 30.16 in - NE 4.6 mph - N/A   Unknown
3:55 AM 69.8 °F - 64.4 °F 83% 30.18 in 10.0 mi NE 4.6 mph - N/A   Clear
4:15 AM 69.8 °F - 64.4 °F 83% 30.17 in 10.0 mi NNE 3.5 mph - N/A   Clear
4:35 AM 69.8 °F - 64.4 °F 83% 30.18 in 10.0 mi NNE 5.8 mph - N/A   Clear
4:53 AM 71.1 °F - 66.0 °F 84% 30.16 in - NNE 5.8 mph - N/A   Unknown
4:55 AM 69.8 °F - 64.4 °F 83% 30.18 in 10.0 mi NNE 5.8 mph - N/A   Clear
5:15 AM 69.8 °F - 64.4 °F 83% 30.17 in 10.0 mi NE 6.9 mph - N/A   Clear
5:35 AM 69.8 °F - 64.4 °F 83% 30.17 in 10.0 mi NE 5.8 mph - N/A   Clear
5:53 AM 71.1 °F - 66.0 °F 84% 30.16 in - NNE 4.6 mph - N/A   Unknown
5:55 AM 69.8 °F - 64.4 °F 83% 30.17 in 10.0 mi NE 4.6 mph - N/A   Clear
6:15 AM 69.8 °F - 64.4 °F 83% 30.17 in 10.0 mi NE 4.6 mph - N/A   Clear
6:35 AM 69.8 °F - 64.4 °F 83% 30.18 in 10.0 mi NE 4.6 mph - N/A   Scattered Clouds
6:53 AM 71.1 °F - 66.0 °F 84% 30.16 in - NNE 5.8 mph - N/A   Unknown
6:55 AM 69.8 °F - 66.2 °F 88% 30.17 in 10.0 mi NE 5.8 mph - N/A   Mostly Cloudy
7:15 AM 69.8 °F - 66.2 °F 88% 30.18 in 10.0 mi NE 4.6 mph - N/A   Mostly Cloudy
7:35 AM 69.8 °F - 64.4 °F 83% 30.18 in 10.0 mi NE 4.6 mph - N/A   Mostly Cloudy
7:53 AM 71.1 °F - 66.0 °F 84% 30.17 in - NE 5.8 mph - N/A   Unknown
7:55 AM 69.8 °F - 66.2 °F 88% 30.18 in 10.0 mi NE 4.6 mph - N/A   Clear
8:15 AM 69.8 °F - 66.2 °F 88% 30.18 in 10.0 mi NNE 5.8 mph - N/A   Clear
8:35 AM 71.6 °F - 66.2 °F 83% 30.19 in 10.0 mi NE 8.1 mph - N/A   Clear
8:53 AM 73.9 °F - 66.9 °F 79% 30.17 in - NE 8.1 mph - N/A   Unknown
8:55 AM 71.6 °F - 68.0 °F 88% 30.19 in 7.0 mi NE 9.2 mph - N/A   Clear
9:15 AM 73.4 °F - 68.0 °F 83% 30.19 in 7.0 mi NE 5.8 mph - N/A   Clear
9:35 AM 75.2 °F - 68.0 °F 78% 30.19 in 10.0 mi NE 5.8 mph - N/A   Clear
9:53 AM 79.0 °F - 68.0 °F 69% 30.18 in - NE 5.8 mph - N/A   Unknown
9:55 AM 77.0 °F - 68.0 °F 74% 30.19 in 7.0 mi ENE 4.6 mph - N/A   Clear
10:15 AM 77.0 °F - 68.0 °F 74% 30.19 in 7.0 mi ENE 5.8 mph - N/A   Clear
10:35 AM 78.8 °F - 68.0 °F 69% 30.20 in 10.0 mi East 5.8 mph - N/A   Clear
10:53 AM 82.0 °F 85.9 °F 70.0 °F 67% 30.18 in - Variable 5.8 mph - N/A   Unknown
10:55 AM 78.8 °F - 69.8 °F 74% 30.20 in 10.0 mi ENE 8.1 mph - N/A   Clear
11:15 AM 80.6 °F 83.9 °F 69.8 °F 70% 30.19 in 10.0 mi NNE 9.2 mph - N/A   Scattered Clouds
11:35 AM 82.4 °F 86.3 °F 69.8 °F 66% 30.20 in 10.0 mi East 5.8 mph - N/A   Mostly Cloudy
11:53 AM 84.0 °F 88.4 °F 70.0 °F 63% 30.18 in - Variable 6.9 mph - N/A   Unknown
11:55 AM 82.4 °F 86.3 °F 69.8 °F 66% 30.19 in 10.0 mi East 6.9 mph - N/A   Mostly Cloudy
12:15 PM 82.4 °F 85.4 °F 68.0 °F 62% 30.19 in 10.0 mi ENE 8.1 mph - N/A   Scattered Clouds
12:35 PM 82.4 °F 85.4 °F 68.0 °F 62% 30.19 in 10.0 mi NE 8.1 mph - N/A   Mostly Cloudy
12:53 PM 84.9 °F 88.8 °F 69.1 °F 59% 30.17 in - NE 10.4 mph 18.4 mph N/A   Unknown
12:55 PM 82.4 °F 85.4 °F 68.0 °F 62% 30.18 in 10.0 mi ENE 8.1 mph - N/A   Scattered Clouds
1:15 PM 84.2 °F 87.3 °F 68.0 °F 58% 30.18 in 10.0 mi NE 8.1 mph - N/A   Scattered Clouds
1:35 PM 84.2 °F 87.3 °F 68.0 °F 58% 30.18 in 10.0 mi ENE 6.9 mph - N/A   Scattered Clouds
1:53 PM 87.1 °F 90.6 °F 68.0 °F 53% 30.15 in - Variable 4.6 mph - N/A   Unknown
1:55 PM 86.0 °F 89.4 °F 68.0 °F 55% 30.17 in 10.0 mi NE 3.5 mph - N/A   Scattered Clouds
2:15 PM 86.0 °F 89.4 °F 68.0 °F 55% 30.16 in 10.0 mi ENE 5.8 mph - N/A   Scattered Clouds
2:35 PM 86.0 °F 89.4 °F 68.0 °F 55% 30.15 in 10.0 mi NE 6.9 mph - N/A   Scattered Clouds
2:53 PM 89.1 °F 93.7 °F 69.1 °F 52% 30.13 in - NE 5.8 mph - N/A   Unknown
2:55 PM 86.0 °F 89.4 °F 68.0 °F 55% 30.14 in 10.0 mi NNE 5.8 mph - N/A   Mostly Cloudy
3:15 PM 84.2 °F 87.3 °F 68.0 °F 58% 30.13 in 10.0 mi North 3.5 mph - N/A   Mostly Cloudy
3:35 PM 86.0 °F 87.3 °F 64.4 °F 48% 30.12 in 10.0 mi Calm Calm - N/A   Scattered Clouds
3:53 PM 88.0 °F 90.7 °F 66.9 °F 49% 30.10 in - ENE 8.1 mph - N/A   Unknown
3:55 PM 86.0 °F 87.3 °F 64.4 °F 48% 30.11 in 10.0 mi NE 5.8 mph - N/A   Scattered Clouds
4:15 PM 87.8 °F 89.4 °F 64.4 °F 46% 30.10 in 10.0 mi Calm Calm - N/A   Scattered Clouds
4:35 PM 86.0 °F 87.3 °F 64.4 °F 48% 30.10 in 10.0 mi NE 4.6 mph - N/A   Scattered Clouds
4:53 PM 86.0 °F 88.8 °F 66.9 °F 53% 30.09 in - NE 5.8 mph - N/A   Unknown
4:55 PM 84.2 °F 85.6 °F 64.4 °F 51% 30.10 in 10.0 mi NE 4.6 mph - N/A   Scattered Clouds
5:15 PM 87.8 °F 88.5 °F 62.6 °F 43% 30.09 in 10.0 mi NNE 4.6 mph - N/A   Scattered Clouds
5:35 PM 87.8 °F 89.4 °F 64.4 °F 46% 30.09 in 10.0 mi Calm Calm - N/A   Scattered Clouds
5:53 PM 89.1 °F 91.3 °F 66.0 °F 46% 30.07 in - North 4.6 mph - N/A   Unknown
5:55 PM 86.0 °F 87.3 °F 64.4 °F 48% 30.08 in 10.0 mi NNE 5.8 mph - N/A   Scattered Clouds
6:15 PM 86.0 °F 88.2 °F 66.2 °F 51% 30.08 in 10.0 mi NNE 9.2 mph - N/A   Scattered Clouds
6:35 PM 84.2 °F 87.3 °F 68.0 °F 58% 30.08 in 10.0 mi North 5.8 mph - N/A   Scattered Clouds
6:53 PM 84.9 °F 89.4 °F 70.0 °F 61% 30.07 in - North 8.1 mph - N/A   Unknown
6:55 PM 82.4 °F 85.4 °F 68.0 °F 62% 30.08 in 10.0 mi North 6.9 mph - N/A   Clear
7:15 PM 80.6 °F 83.2 °F 68.0 °F 65% 30.09 in 10.0 mi North 5.8 mph - N/A   Clear
7:53 PM 82.0 °F 85.5 °F 69.1 °F 65% 30.07 in - North 6.9 mph - N/A   Unknown
7:55 PM 80.6 °F 83.2 °F 68.0 °F 65% 30.09 in 10.0 mi North 5.8 mph - N/A   Mostly Cloudy
8:35 PM 78.8 °F - 68.0 °F 69% 30.10 in 10.0 mi North 4.6 mph - N/A   Scattered Clouds
8:53 PM 80.1 °F 82.9 °F 69.1 °F 69% 30.09 in - NNE 4.6 mph - N/A   Unknown
9:15 PM 78.8 °F - 69.8 °F 74% 30.11 in 10.0 mi NE 4.6 mph - N/A   Mostly Cloudy
9:35 PM 78.8 °F - 69.8 °F 74% 30.11 in 10.0 mi NNE 4.6 mph - N/A   Overcast
9:53 PM 80.1 °F 83.2 °F 70.0 °F 71% 30.10 in - NE 5.8 mph - N/A   Unknown
9:55 PM 78.8 °F - 69.8 °F 74% 30.12 in 10.0 mi NE 5.8 mph - N/A   Overcast
10:15 PM 77.0 °F - 69.8 °F 78% 30.12 in 10.0 mi NE 4.6 mph - N/A   Scattered Clouds
10:35 PM 77.0 °F - 69.8 °F 78% 30.13 in 10.0 mi NE 4.6 mph - N/A   Clear
10:53 PM 78.1 °F - 70.0 °F 76% 30.12 in - ENE 3.5 mph - N/A   Unknown
10:55 PM 77.0 °F - 69.8 °F 78% 30.13 in 10.0 mi NE 4.6 mph - N/A   Scattered Clouds
11:15 PM 77.0 °F - 69.8 °F 78% 30.13 in 10.0 mi ENE 3.5 mph - N/A   Clear
11:35 PM 75.2 °F - 69.8 °F 83% 30.13 in 10.0 mi ENE 3.5 mph - N/A   Scattered Clouds
11:53 PM 77.0 °F - 71.1 °F 82% 30.12 in - Calm Calm - N/A   Unknown
11:55 PM 75.2 °F - 69.8 °F 83% 30.13 in 10.0 mi Calm Calm - N/A   Mostly Cloudy